SPACEBEE-4

Last updated on Tue Dec 20 2022 00:03:39 GMT+0000 (Coordinated Universal Time)

1 43139U 18004AE 22352.75587960 .14606537 24899-5 65388-3 0 9996 2 43139 97.3411 83.9981 0009434 283.7433 76.2818 16.42534282275570

Satellite not in orbit